Time,TemperatureF,DewpointF,PressureIn,WindDirection,WindDirectionDegrees,WindSpeedMPH,WindSpeedGustMPH,Humidity,HourlyPrecipIn,Conditions,Clouds,dailyrainin,SoftwareType,DateUTC
2013-01-23 00:01:00,41.0,15.5,30.17,ENE,63,0.0,0.0,35,0.00,,CLR,0.00,VWS V14.01,2013-01-23 08:01:00,
2013-01-23 00:06:00,41.0,15.5,30.17,ENE,63,0.0,0.0,35,0.00,,CLR,0.00,VWS V14.01,2013-01-23 08:06:00,
2013-01-23 00:11:00,40.9,15.4,30.17,ENE,63,0.0,0.0,35,0.00,,CLR,0.00,VWS V14.01,2013-01-23 08:11:00,
2013-01-23 00:16:00,40.7,14.5,30.17,ENE,63,0.0,0.0,34,0.00,,CLR,0.00,VWS V14.01,2013-01-23 08:16:00,
2013-01-23 00:23:00,40.6,15.1,30.17,ENE,63,0.0,0.0,35,0.00,,CLR,0.00,VWS V14.01,2013-01-23 08:23:00,
2013-01-23 00:28:00,40.5,15.0,30.17,ENE,63,0.0,0.0,35,0.00,,CLR,0.00,VWS V14.01,2013-01-23 08:28:00,
2013-01-23 00:33:00,40.4,15.6,30.17,ENE,63,0.0,0.0,36,0.00,,CLR,0.00,VWS V14.01,2013-01-23 08:33:00,
2013-01-23 00:38:00,40.3,15.5,30.17,ENE,63,0.0,0.0,36,0.00,,CLR,0.00,VWS V14.01,2013-01-23 08:38:00,
2013-01-23 00:43:00,40.2,15.4,30.17,ENE,63,0.0,0.0,36,0.00,,CLR,0.00,VWS V14.01,2013-01-23 08:43:00,
2013-01-23 00:48:00,40.2,15.4,30.16,ENE,63,0.0,0.0,36,0.00,,CLR,0.00,VWS V14.01,2013-01-23 08:48:00,
2013-01-23 00:53:00,40.3,16.1,30.17,ENE,63,0.0,0.0,37,0.00,,CLR,0.00,VWS V14.01,2013-01-23 08:53:00,
2013-01-23 00:59:00,40.3,16.1,30.17,ENE,63,1.0,2.0,37,0.00,,CLR,0.00,VWS V14.01,2013-01-23 08:59:00,
2013-01-23 01:05:00,40.4,16.2,30.17,ENE,63,0.0,1.0,37,0.00,,CLR,0.00,VWS V14.01,2013-01-23 09:05:00,
2013-01-23 01:10:00,40.4,16.2,30.17,ENE,63,0.0,0.0,37,0.00,,CLR,0.00,VWS V14.01,2013-01-23 09:10:00,
2013-01-23 01:15:00,40.6,16.4,30.17,ENE,63,0.0,0.0,37,0.00,,CLR,0.00,VWS V14.01,2013-01-23 09:15:00,
2013-01-23 01:20:00,40.7,16.5,30.17,ENE,63,0.0,0.0,37,0.00,,CLR,0.00,VWS V14.01,2013-01-23 09:20:00,
2013-01-23 01:25:00,40.8,15.9,30.17,ENE,63,0.0,0.0,36,0.00,,CLR,0.00,VWS V14.01,2013-01-23 09:25:00,
2013-01-23 01:30:00,40.8,15.9,30.17,ENE,63,0.0,1.0,36,0.00,,CLR,0.00,VWS V14.01,2013-01-23 09:30:00,
2013-01-23 01:35:00,40.9,16.0,30.17,ENE,63,0.0,0.0,36,0.00,,CLR,0.00,VWS V14.01,2013-01-23 09:35:00,
2013-01-23 01:40:00,40.9,16.0,30.17,ENE,63,0.0,2.0,36,0.00,,CLR,0.00,VWS V14.01,2013-01-23 09:40:00,
2013-01-23 01:45:00,41.0,16.1,30.17,ENE,63,0.0,1.0,36,0.00,,CLR,0.00,VWS V14.01,2013-01-23 09:45:00,
2013-01-23 01:50:00,41.2,15.6,30.17,ENE,63,0.0,0.0,35,0.00,,CLR,0.00,VWS V14.01,2013-01-23 09:50:00,
2013-01-23 01:56:00,41.2,16.3,30.17,ENE,63,0.0,0.0,36,0.00,,CLR,0.00,VWS V14.01,2013-01-23 09:56:00,
2013-01-23 02:01:00,41.1,15.6,30.17,ENE,63,0.0,0.0,35,0.00,,CLR,0.00,VWS V14.01,2013-01-23 10:01:00,
2013-01-23 02:07:00,41.1,15.6,30.17,ENE,63,0.0,0.0,35,0.00,,CLR,0.00,VWS V14.01,2013-01-23 10:07:00,
2013-01-23 02:12:00,41.1,15.6,30.17,ENE,63,0.0,0.0,35,0.00,,CLR,0.00,VWS V14.01,2013-01-23 10:12:00,
2013-01-23 02:17:00,40.9,16.0,30.17,ENE,63,0.0,0.0,36,0.00,,CLR,0.00,VWS V14.01,2013-01-23 10:17:00,
2013-01-23 02:22:00,40.8,15.9,30.17,ENE,63,0.0,0.0,36,0.00,,CLR,0.00,VWS V14.01,2013-01-23 10:22:00,
2013-01-23 02:28:00,40.7,16.5,30.17,ENE,63,0.0,0.0,37,0.00,,CLR,0.00,VWS V14.01,2013-01-23 10:28:00,
2013-01-23 02:33:00,40.7,16.5,30.17,ENE,63,0.0,0.0,37,0.00,,CLR,0.00,VWS V14.01,2013-01-23 10:33:00,
2013-01-23 02:38:00,40.6,16.4,30.17,ENE,63,0.0,0.0,37,0.00,,CLR,0.00,VWS V14.01,2013-01-23 10:38:00,
2013-01-23 02:43:00,40.5,16.9,30.17,ENE,63,0.0,0.0,38,0.00,,CLR,0.00,VWS V14.01,2013-01-23 10:43:00,
2013-01-23 02:48:00,40.4,17.4,30.17,ENE,63,0.0,0.0,39,0.00,,CLR,0.00,VWS V14.01,2013-01-23 10:48:00,
2013-01-23 02:53:00,40.3,17.3,30.17,ENE,63,0.0,0.0,39,0.00,,CLR,0.00,VWS V14.01,2013-01-23 10:53:00,
2013-01-23 02:58:00,40.2,17.2,30.17,ENE,63,0.0,0.0,39,0.00,,CLR,0.00,VWS V14.01,2013-01-23 10:58:00,
2013-01-23 03:03:00,40.1,17.1,30.17,ENE,63,0.0,0.0,39,0.00,,CLR,0.00,VWS V14.01,2013-01-23 11:03:00,
2013-01-23 03:09:00,40.0,17.1,30.16,ENE,63,0.0,0.0,39,0.00,,CLR,0.00,VWS V14.01,2013-01-23 11:09:00,
2013-01-23 03:14:00,39.9,17.0,30.17,ENE,63,0.0,0.0,39,0.00,,CLR,0.00,VWS V14.01,2013-01-23 11:14:00,
2013-01-23 03:19:00,40.0,17.1,30.17,ENE,63,0.0,0.0,39,0.00,,CLR,0.00,VWS V14.01,2013-01-23 11:19:00,
2013-01-23 03:24:00,40.1,17.1,30.16,ENE,63,0.0,0.0,39,0.00,,CLR,0.00,VWS V14.01,2013-01-23 11:24:00,
2013-01-23 03:29:00,40.1,16.5,30.17,ENE,63,0.0,0.0,38,0.00,,CLR,0.00,VWS V14.01,2013-01-23 11:29:00,
2013-01-23 03:34:00,40.2,17.2,30.17,ENE,63,0.0,0.0,39,0.00,,CLR,0.00,VWS V14.01,2013-01-23 11:34:00,
2013-01-23 03:39:00,40.3,16.7,30.16,ENE,63,0.0,0.0,38,0.00,,CLR,0.00,VWS V14.01,2013-01-23 11:39:00,
2013-01-23 03:45:00,40.4,16.8,30.16,ENE,63,0.0,0.0,38,0.00,,CLR,0.00,VWS V14.01,2013-01-23 11:45:00,
2013-01-23 03:50:00,40.3,17.3,30.16,ENE,63,0.0,0.0,39,0.00,,CLR,0.00,VWS V14.01,2013-01-23 11:50:00,
2013-01-23 03:55:00,40.2,17.2,30.15,ENE,63,0.0,0.0,39,0.00,,CLR,0.00,VWS V14.01,2013-01-23 11:55:00,
2013-01-23 04:00:00,40.1,17.1,30.15,ENE,63,0.0,0.0,39,0.00,,CLR,0.00,VWS V14.01,2013-01-23 12:00:00,
2013-01-23 04:05:00,40.1,17.1,30.16,ENE,63,0.0,0.0,39,0.00,,CLR,0.00,VWS V14.01,2013-01-23 12:05:00,
2013-01-23 04:10:00,40.1,17.1,30.15,ENE,63,0.0,0.0,39,0.00,,CLR,0.00,VWS V14.01,2013-01-23 12:10:00,
2013-01-23 04:16:00,40.2,17.2,30.15,ENE,63,0.0,0.0,39,0.00,,CLR,0.00,VWS V14.01,2013-01-23 12:16:00,
2013-01-23 04:21:00,40.2,17.2,30.15,ENE,63,0.0,0.0,39,0.00,,CLR,0.00,VWS V14.01,2013-01-23 12:21:00,
2013-01-23 04:26:00,40.3,16.7,30.15,ENE,63,0.0,0.0,38,0.00,,CLR,0.00,VWS V14.01,2013-01-23 12:26:00,
2013-01-23 04:32:00,40.5,17.5,30.15,ENE,63,0.0,0.0,39,0.00,,CLR,0.00,VWS V14.01,2013-01-23 12:32:00,
2013-01-23 04:37:00,40.6,17.6,30.15,ENE,63,0.0,0.0,39,0.00,,CLR,0.00,VWS V14.01,2013-01-23 12:37:00,
2013-01-23 04:42:00,40.6,18.2,30.15,ENE,63,0.0,0.0,40,0.00,,CLR,0.00,VWS V14.01,2013-01-23 12:42:00,
2013-01-23 04:47:00,40.6,17.6,30.15,ENE,63,0.0,0.0,39,0.00,,CLR,0.00,VWS V14.01,2013-01-23 12:47:00,
2013-01-23 04:53:00,40.6,18.2,30.15,ENE,63,0.0,0.0,40,0.00,,CLR,0.00,VWS V14.01,2013-01-23 12:53:00,
2013-01-23 04:58:00,40.6,18.2,30.15,ENE,63,0.0,0.0,40,0.00,,CLR,0.00,VWS V14.01,2013-01-23 12:58:00,
2013-01-23 05:03:00,40.6,18.2,30.15,ENE,63,0.0,0.0,40,0.00,,CLR,0.00,VWS V14.01,2013-01-23 13:03:00,
2013-01-23 05:08:00,40.7,18.3,30.15,ENE,63,0.0,0.0,40,0.00,,CLR,0.00,VWS V14.01,2013-01-23 13:08:00,
2013-01-23 05:13:00,40.7,18.3,30.15,ENE,63,0.0,0.0,40,0.00,,CLR,0.00,VWS V14.01,2013-01-23 13:13:00,
2013-01-23 05:18:00,40.8,18.4,30.15,ENE,63,0.0,0.0,40,0.00,,CLR,0.00,VWS V14.01,2013-01-23 13:18:00,
2013-01-23 05:23:00,40.8,18.4,30.15,ENE,63,0.0,0.0,40,0.00,,CLR,0.00,VWS V14.01,2013-01-23 13:23:00,
2013-01-23 05:28:00,40.8,18.4,30.15,ENE,63,0.0,0.0,40,0.00,,CLR,0.00,VWS V14.01,2013-01-23 13:28:00,
2013-01-23 05:34:00,40.9,18.5,30.15,ENE,63,0.0,0.0,40,0.00,,CLR,0.00,VWS V14.01,2013-01-23 13:34:00,
2013-01-23 05:39:00,40.8,18.4,30.15,ENE,63,0.0,0.0,40,0.00,,CLR,0.00,VWS V14.01,2013-01-23 13:39:00,
2013-01-23 05:44:00,40.8,18.9,30.15,ENE,63,0.0,0.0,41,0.00,,CLR,0.00,VWS V14.01,2013-01-23 13:44:00,
2013-01-23 05:49:00,40.9,18.5,30.15,ENE,63,0.0,0.0,40,0.00,,CLR,0.00,VWS V14.01,2013-01-23 13:49:00,
2013-01-23 05:54:00,40.9,18.5,30.15,ENE,63,0.0,0.0,40,0.00,,CLR,0.00,VWS V14.01,2013-01-23 13:54:00,
2013-01-23 05:59:00,41.0,18.5,30.15,ENE,63,1.0,1.0,40,0.00,,CLR,0.00,VWS V14.01,2013-01-23 13:59:00,
2013-01-23 06:04:00,41.1,18.6,30.15,ENE,63,0.0,0.0,40,0.00,,CLR,0.00,VWS V14.01,2013-01-23 14:04:00,
2013-01-23 06:09:00,41.3,19.4,30.15,ENE,63,0.0,0.0,41,0.00,,CLR,0.00,VWS V14.01,2013-01-23 14:09:00,
2013-01-23 06:14:00,41.3,18.8,30.16,ENE,63,0.0,0.0,40,0.00,,CLR,0.00,VWS V14.01,2013-01-23 14:14:00,
2013-01-23 06:19:00,41.3,18.8,30.16,ENE,63,0.0,0.0,40,0.00,,CLR,0.00,VWS V14.01,2013-01-23 14:19:00,
2013-01-23 06:24:00,41.4,18.9,30.16,ENE,63,0.0,0.0,40,0.00,,CLR,0.00,VWS V14.01,2013-01-23 14:24:00,
2013-01-23 06:29:00,41.5,19.0,30.16,ENE,63,0.0,0.0,40,0.00,,CLR,0.00,VWS V14.01,2013-01-23 14:29:00,
2013-01-23 06:34:00,41.5,19.0,30.16,ENE,63,0.0,0.0,40,0.00,,CLR,0.00,VWS V14.01,2013-01-23 14:34:00,
2013-01-23 06:39:00,41.5,19.6,30.16,ENE,63,0.0,0.0,41,0.00,,CLR,0.00,VWS V14.01,2013-01-23 14:39:00,
2013-01-23 06:44:00,41.5,19.6,30.16,ENE,63,0.0,0.0,41,0.00,,CLR,0.00,VWS V14.01,2013-01-23 14:44:00,
2013-01-23 06:50:00,41.5,19.6,30.16,ENE,63,0.0,0.0,41,0.00,,CLR,0.00,VWS V14.01,2013-01-23 14:50:00,
2013-01-23 06:55:00,41.4,19.5,30.16,ENE,63,0.0,0.0,41,0.00,,CLR,0.00,VWS V14.01,2013-01-23 14:55:00,
2013-01-23 07:00:00,41.4,20.0,30.16,ENE,63,0.0,0.0,42,0.00,,CLR,0.00,VWS V14.01,2013-01-23 15:00:00,
2013-01-23 07:05:00,41.3,20.0,30.16,ENE,63,0.0,0.0,42,0.00,,CLR,0.00,VWS V14.01,2013-01-23 15:05:00,
2013-01-23 07:10:00,41.2,19.9,30.16,ENE,63,0.0,0.0,42,0.00,,CLR,0.00,VWS V14.01,2013-01-23 15:10:00,
2013-01-23 07:15:00,41.1,20.3,30.17,ENE,63,0.0,0.0,43,0.00,,CLR,0.00,VWS V14.01,2013-01-23 15:15:00,
2013-01-23 07:20:00,41.1,20.3,30.17,ENE,63,0.0,0.0,43,0.00,,CLR,0.00,VWS V14.01,2013-01-23 15:20:00,
2013-01-23 07:25:00,41.0,20.2,30.17,ENE,63,0.0,0.0,43,0.00,,CLR,0.00,VWS V14.01,2013-01-23 15:25:00,
2013-01-23 07:30:00,41.0,20.2,30.17,ENE,63,0.0,0.0,43,0.00,,CLR,0.00,VWS V14.01,2013-01-23 15:30:00,
2013-01-23 07:35:00,40.9,20.7,30.17,ENE,63,0.0,0.0,44,0.00,,CLR,0.00,VWS V14.01,2013-01-23 15:35:00,
2013-01-23 07:40:00,41.0,20.8,30.17,ENE,63,0.0,0.0,44,0.00,,CLR,0.00,VWS V14.01,2013-01-23 15:40:00,
2013-01-23 07:45:00,41.0,20.8,30.17,ENE,63,0.0,0.0,44,0.00,,CLR,0.00,VWS V14.01,2013-01-23 15:45:00,
2013-01-23 07:50:00,41.1,20.9,30.17,ENE,62,0.0,0.0,44,0.00,,CLR,0.00,VWS V14.01,2013-01-23 15:50:00,
2013-01-23 07:55:00,41.2,21.0,30.17,ENE,62,0.0,0.0,44,0.00,,CLR,0.00,VWS V14.01,2013-01-23 15:55:00,
2013-01-23 08:00:00,41.4,19.5,30.17,ENE,62,0.0,0.0,41,0.00,,CLR,0.00,VWS V14.01,2013-01-23 16:00:00,
2013-01-23 08:06:00,41.6,19.7,30.17,ENE,62,0.0,0.0,41,0.00,,CLR,0.00,VWS V14.01,2013-01-23 16:06:00,
2013-01-23 08:11:00,41.8,19.8,30.17,ENE,62,0.0,0.0,41,0.00,,CLR,0.00,VWS V14.01,2013-01-23 16:11:00,
2013-01-23 08:16:00,42.0,20.6,30.17,ENE,62,0.0,0.0,42,0.00,,CLR,0.00,VWS V14.01,2013-01-23 16:16:00,
2013-01-23 08:21:00,42.1,20.1,30.16,ENE,62,0.0,0.0,41,0.00,,CLR,0.00,VWS V14.01,2013-01-23 16:21:00,
2013-01-23 08:26:00,42.3,20.9,30.16,ENE,62,0.0,0.0,42,0.00,,CLR,0.00,VWS V14.01,2013-01-23 16:26:00,
2013-01-23 08:31:00,42.5,19.9,30.16,ENE,62,0.0,0.0,40,0.00,,CLR,0.00,VWS V14.01,2013-01-23 16:31:00,
2013-01-23 08:36:00,42.9,19.1,30.16,ENE,62,0.0,0.0,38,0.00,,CLR,0.00,VWS V14.01,2013-01-23 16:36:00,
2013-01-23 08:41:00,43.4,19.5,30.16,ENE,62,0.0,0.0,38,0.00,,CLR,0.00,VWS V14.01,2013-01-23 16:41:00,
2013-01-23 08:46:00,44.2,19.0,30.16,ENE,62,0.0,0.0,36,0.00,,CLR,0.00,VWS V14.01,2013-01-23 16:46:00,
2013-01-23 08:51:00,45.5,18.8,30.17,ENE,62,0.0,0.0,34,0.00,,CLR,0.00,VWS V14.01,2013-01-23 16:51:00,
2013-01-23 08:56:00,46.7,17.7,30.17,ENE,62,0.0,0.0,31,0.00,,CLR,0.00,VWS V14.01,2013-01-23 16:56:00,
2013-01-23 09:01:00,47.8,17.1,30.17,ENE,62,0.0,0.0,29,0.00,,CLR,0.00,VWS V14.01,2013-01-23 17:01:00,
2013-01-23 09:07:00,48.7,17.1,30.17,ENE,62,0.0,1.0,28,0.00,,CLR,0.00,VWS V14.01,2013-01-23 17:07:00,
2013-01-23 09:12:00,49.7,16.2,30.17,ENE,62,0.0,0.0,26,0.00,,CLR,0.00,VWS V14.01,2013-01-23 17:12:00,
2013-01-23 09:17:00,50.7,15.2,30.17,ENE,62,0.0,2.0,24,0.00,,CLR,0.00,VWS V14.01,2013-01-23 17:17:00,
2013-01-23 09:22:00,51.5,16.9,30.17,ENE,62,0.0,1.0,25,0.00,,CLR,0.00,VWS V14.01,2013-01-23 17:22:00,
2013-01-23 09:27:00,52.2,16.5,30.17,ENE,62,0.0,1.0,24,0.00,,CLR,0.00,VWS V14.01,2013-01-23 17:27:00,
2013-01-23 09:32:00,52.9,18.0,30.17,ENE,62,0.0,1.0,25,0.00,,CLR,0.00,VWS V14.01,2013-01-23 17:32:00,
2013-01-23 09:37:00,53.5,16.6,30.17,ENE,61,0.0,1.0,23,0.00,,CLR,0.00,VWS V14.01,2013-01-23 17:37:00,
2013-01-23 09:42:00,53.9,17.0,30.18,ENE,61,0.0,0.0,23,0.00,,CLR,0.00,VWS V14.01,2013-01-23 17:42:00,
2013-01-23 09:47:00,54.3,15.2,30.18,ENE,59,1.0,3.0,21,0.00,,CLR,0.00,VWS V14.01,2013-01-23 17:47:00,
2013-01-23 09:52:00,54.8,15.6,30.18,ENE,59,3.0,3.0,21,0.00,,CLR,0.00,VWS V14.01,2013-01-23 17:52:00,
2013-01-23 09:57:00,55.4,16.1,30.19,NE,55,0.0,1.0,21,0.00,,CLR,0.00,VWS V14.01,2013-01-23 17:57:00,
2013-01-23 10:02:00,56.0,15.5,30.18,NE,51,2.0,3.0,20,0.00,,CLR,0.00,VWS V14.01,2013-01-23 18:02:00,
2013-01-23 10:07:00,56.5,13.5,30.18,NE,51,0.0,2.0,18,0.00,,CLR,0.00,VWS V14.01,2013-01-23 18:07:00,
2013-01-23 10:12:00,56.7,13.7,30.18,NE,51,0.0,2.0,18,0.00,,CLR,0.00,VWS V14.01,2013-01-23 18:12:00,
2013-01-23 10:17:00,56.6,13.6,30.18,NE,51,2.0,2.0,18,0.00,,CLR,0.00,VWS V14.01,2013-01-23 18:17:00,
2013-01-23 10:23:00,56.4,14.7,30.18,NE,51,0.0,3.0,19,0.00,,CLR,0.00,VWS V14.01,2013-01-23 18:23:00,
2013-01-23 10:28:00,56.4,14.7,30.18,NE,51,0.0,2.0,19,0.00,,CLR,0.00,VWS V14.01,2013-01-23 18:28:00,
2013-01-23 10:33:00,56.7,14.9,30.18,NE,51,0.0,0.0,19,0.00,,CLR,0.00,VWS V14.01,2013-01-23 18:33:00,
2013-01-23 10:38:00,57.0,13.9,30.17,NE,51,0.0,2.0,18,0.00,,CLR,0.00,VWS V14.01,2013-01-23 18:38:00,
2013-01-23 10:43:00,57.5,14.4,30.17,NE,51,0.0,2.0,18,0.00,,CLR,0.00,VWS V14.01,2013-01-23 18:43:00,
2013-01-23 10:48:00,57.7,13.2,30.17,NE,51,0.0,2.0,17,0.00,,CLR,0.00,VWS V14.01,2013-01-23 18:48:00,
2013-01-23 10:53:00,57.9,14.7,30.17,NE,51,0.0,1.0,18,0.00,,CLR,0.00,VWS V14.01,2013-01-23 18:53:00,
2013-01-23 10:58:00,58.2,13.6,30.16,NE,51,1.0,2.0,17,0.00,,CLR,0.00,VWS V14.01,2013-01-23 18:58:00,
2013-01-23 11:03:00,58.2,13.6,30.16,NE,51,0.0,3.0,17,0.00,,CLR,0.00,VWS V14.01,2013-01-23 19:03:00,
2013-01-23 11:08:00,58.2,12.2,30.17,NE,51,1.0,2.0,16,0.00,,CLR,0.00,VWS V14.01,2013-01-23 19:08:00,
2013-01-23 11:13:00,58.1,13.5,30.16,NE,51,0.0,3.0,17,0.00,,CLR,0.00,VWS V14.01,2013-01-23 19:13:00,
2013-01-23 11:18:00,58.1,13.5,30.16,NE,51,1.0,1.0,17,0.00,,CLR,0.00,VWS V14.01,2013-01-23 19:18:00,
2013-01-23 11:23:00,58.3,13.7,30.16,NE,51,0.0,0.0,17,0.00,,CLR,0.00,VWS V14.01,2013-01-23 19:23:00,
2013-01-23 11:29:00,58.6,13.9,30.16,NE,51,0.0,0.0,17,0.00,,CLR,0.00,VWS V14.01,2013-01-23 19:29:00,
2013-01-23 11:34:00,58.6,12.6,30.15,NE,51,0.0,0.0,16,0.00,,CLR,0.00,VWS V14.01,2013-01-23 19:34:00,
2013-01-23 11:39:00,58.7,12.6,30.15,NE,51,0.0,1.0,16,0.00,,CLR,0.00,VWS V14.01,2013-01-23 19:39:00,
2013-01-23 11:44:00,59.0,12.9,30.15,NE,51,0.0,2.0,16,0.00,,CLR,0.00,VWS V14.01,2013-01-23 19:44:00,
2013-01-23 11:49:00,59.0,11.4,30.14,NE,51,0.0,3.0,15,0.00,,CLR,0.00,VWS V14.01,2013-01-23 19:49:00,
2013-01-23 11:54:00,59.1,13.0,30.14,NE,51,0.0,2.0,16,0.00,,CLR,0.00,VWS V14.01,2013-01-23 19:54:00,
2013-01-23 11:59:00,59.0,12.9,30.14,NE,51,0.0,2.0,16,0.00,,CLR,0.00,VWS V14.01,2013-01-23 19:59:00,
2013-01-23 12:04:00,58.8,12.7,30.14,NE,49,0.0,4.0,16,0.00,,CLR,0.00,VWS V14.01,2013-01-23 20:04:00,
2013-01-23 12:09:00,58.8,12.7,30.13,NE,49,0.0,2.0,16,0.00,,CLR,0.00,VWS V14.01,2013-01-23 20:09:00,
2013-01-23 12:14:00,59.0,12.9,30.13,NE,49,0.0,4.0,16,0.00,,CLR,0.00,VWS V14.01,2013-01-23 20:14:00,
2013-01-23 12:19:00,59.8,13.5,30.13,NE,49,0.0,1.0,16,0.00,,CLR,0.00,VWS V14.01,2013-01-23 20:19:00,
2013-01-23 12:24:00,60.4,12.6,30.13,NE,47,2.0,4.0,15,0.00,,CLR,0.00,VWS V14.01,2013-01-23 20:24:00,
2013-01-23 12:29:00,60.4,12.6,30.13,NE,46,0.0,3.0,15,0.00,,CLR,0.00,VWS V14.01,2013-01-23 20:29:00,
2013-01-23 12:34:00,60.5,12.6,30.12,NE,46,0.0,3.0,15,0.00,,CLR,0.00,VWS V14.01,2013-01-23 20:34:00,
2013-01-23 12:39:00,61.3,11.7,30.12,NE,46,1.0,1.0,14,0.00,,CLR,0.00,VWS V14.01,2013-01-23 20:39:00,
2013-01-23 12:45:00,62.0,12.3,30.12,NE,38,0.0,4.0,14,0.00,,CLR,0.00,VWS V14.01,2013-01-23 20:45:00,
2013-01-23 12:50:00,62.4,14.2,30.12,NE,38,0.0,4.0,15,0.00,,CLR,0.00,VWS V14.01,2013-01-23 20:50:00,
2013-01-23 12:55:00,63.0,13.1,30.12,NE,38,2.0,3.0,14,0.00,,CLR,0.00,VWS V14.01,2013-01-23 20:55:00,
2013-01-23 13:00:00,63.4,13.4,30.11,NE,38,2.0,2.0,14,0.00,,CLR,0.00,VWS V14.01,2013-01-23 21:00:00,
2013-01-23 13:05:00,63.8,12.0,30.11,North,360,5.0,5.0,13,0.00,,CLR,0.00,VWS V14.01,2013-01-23 21:05:00,
2013-01-23 13:10:00,63.8,12.0,30.11,North,355,1.0,1.0,13,0.00,,CLR,0.00,VWS V14.01,2013-01-23 21:10:00,
2013-01-23 13:15:00,64.0,12.2,30.11,North,355,0.0,1.0,13,0.00,,CLR,0.00,VWS V14.01,2013-01-23 21:15:00,
2013-01-23 13:20:00,63.7,12.0,30.11,NNW,346,1.0,1.0,13,0.00,,CLR,0.00,VWS V14.01,2013-01-23 21:20:00,
2013-01-23 13:25:00,63.5,11.8,30.11,NNW,346,4.0,4.0,13,0.00,,CLR,0.00,VWS V14.01,2013-01-23 21:25:00,
2013-01-23 13:30:00,63.5,13.5,30.11,NNW,346,0.0,0.0,14,0.00,,CLR,0.00,VWS V14.01,2013-01-23 21:30:00,
2013-01-23 13:35:00,63.7,13.6,30.10,NNW,346,0.0,0.0,14,0.00,,CLR,0.00,VWS V14.01,2013-01-23 21:35:00,
2013-01-23 13:40:00,63.8,12.0,30.09,NNW,346,2.0,4.0,13,0.00,,CLR,0.00,VWS V14.01,2013-01-23 21:40:00,
2013-01-23 13:45:00,63.9,13.8,30.09,NNW,347,0.0,0.0,14,0.00,,CLR,0.00,VWS V14.01,2013-01-23 21:45:00,
2013-01-23 13:51:00,63.9,12.1,30.09,North,360,1.0,2.0,13,0.00,,CLR,0.00,VWS V14.01,2013-01-23 21:51:00,
2013-01-23 13:56:00,63.7,12.0,30.09,NNE,21,5.0,5.0,13,0.00,,CLR,0.00,VWS V14.01,2013-01-23 21:56:00,
2013-01-23 14:01:00,63.4,11.7,30.09,NNE,22,0.0,1.0,13,0.00,,SCT110,0.00,VWS V14.01,2013-01-23 22:01:00,
2013-01-23 14:06:00,63.4,13.4,30.09,NNE,22,0.0,2.0,14,0.00,,SCT110,0.00,VWS V14.01,2013-01-23 22:06:00,
2013-01-23 14:11:00,63.4,13.4,30.09,NNE,22,0.0,4.0,14,0.00,,SCT110,0.00,VWS V14.01,2013-01-23 22:11:00,
2013-01-23 14:16:00,63.3,11.6,30.09,NNE,22,0.0,0.0,13,0.00,,SCT110,0.00,VWS V14.01,2013-01-23 22:16:00,
2013-01-23 14:21:00,63.3,13.3,30.09,NNE,22,0.0,0.0,14,0.00,,SCT110,0.00,VWS V14.01,2013-01-23 22:21:00,
2013-01-23 14:26:00,63.3,13.3,30.09,NNE,22,0.0,2.0,14,0.00,,SCT110,0.00,VWS V14.01,2013-01-23 22:26:00,
2013-01-23 14:31:00,63.2,13.2,30.09,NNE,22,0.0,0.0,14,0.00,,SCT110,0.00,VWS V14.01,2013-01-23 22:31:00,
2013-01-23 14:36:00,63.2,13.2,30.09,NNE,22,2.0,2.0,14,0.00,,SCT110,0.00,VWS V14.01,2013-01-23 22:36:00,
2013-01-23 14:41:00,63.2,11.6,30.09,NNE,22,0.0,3.0,13,0.00,,SCT110,0.00,VWS V14.01,2013-01-23 22:41:00,
2013-01-23 14:46:00,63.1,13.2,30.08,NNE,22,0.0,0.0,14,0.00,,SCT110,0.00,VWS V14.01,2013-01-23 22:46:00,
2013-01-23 14:51:00,63.1,13.2,30.08,NNE,22,0.0,0.0,14,0.00,,SCT110,0.00,VWS V14.01,2013-01-23 22:51:00,
2013-01-23 14:56:00,63.1,13.2,30.08,NNE,22,0.0,0.0,14,0.00,,SCT110,0.00,VWS V14.01,2013-01-23 22:56:00,
2013-01-23 15:02:00,63.1,13.2,30.08,NNE,22,2.0,3.0,14,0.00,,SCT120,0.00,VWS V14.01,2013-01-23 23:02:00,
2013-01-23 15:07:00,63.1,13.2,30.09,NNE,22,0.0,2.0,14,0.00,,SCT120,0.00,VWS V14.01,2013-01-23 23:07:00,
2013-01-23 15:12:00,63.1,13.2,30.08,NNE,22,0.0,2.0,14,0.00,,SCT120,0.00,VWS V14.01,2013-01-23 23:12:00,
2013-01-23 15:17:00,63.0,14.6,30.08,NNE,22,0.0,3.0,15,0.00,,SCT120,0.00,VWS V14.01,2013-01-23 23:17:00,
2013-01-23 15:22:00,62.9,13.0,30.09,NNE,22,0.0,4.0,14,0.00,,SCT120,0.00,VWS V14.01,2013-01-23 23:22:00,
2013-01-23 15:27:00,62.9,13.0,30.09,NNE,22,2.0,2.0,14,0.00,,SCT120,0.00,VWS V14.01,2013-01-23 23:27:00,
2013-01-23 15:32:00,62.7,14.4,30.09,NNE,22,0.0,3.0,15,0.00,,SCT120,0.00,VWS V14.01,2013-01-23 23:32:00,
2013-01-23 15:37:00,62.5,12.7,30.09,NNE,24,2.0,6.0,14,0.00,,SCT120,0.00,VWS V14.01,2013-01-23 23:37:00,
2013-01-23 15:42:00,62.3,12.5,30.09,NNE,24,0.0,3.0,14,0.00,,SCT120,0.00,VWS V14.01,2013-01-23 23:42:00,
2013-01-23 15:47:00,62.2,12.4,30.09,NNE,24,1.0,1.0,14,0.00,,SCT120,0.00,VWS V14.01,2013-01-23 23:47:00,
2013-01-23 15:52:00,62.1,13.9,30.09,NNE,24,0.0,1.0,15,0.00,,SCT120,0.00,VWS V14.01,2013-01-23 23:52:00,
2013-01-23 15:57:00,62.0,12.3,30.08,NNE,24,1.0,1.0,14,0.00,,SCT120,0.00,VWS V14.01,2013-01-23 23:57:00,
2013-01-23 16:02:00,62.0,13.9,30.08,NNE,24,0.0,0.0,15,0.00,,CLR,0.00,VWS V14.01,2013-01-24 00:02:00,
2013-01-23 16:07:00,62.0,13.9,30.08,NNE,24,0.0,0.0,15,0.00,,CLR,0.00,VWS V14.01,2013-01-24 00:07:00,
2013-01-23 16:12:00,62.0,13.9,30.08,NNE,24,0.0,0.0,15,0.00,,CLR,0.00,VWS V14.01,2013-01-24 00:12:00,
2013-01-23 16:18:00,62.0,13.9,30.07,NNE,24,0.0,0.0,15,0.00,,CLR,0.00,VWS V14.01,2013-01-24 00:18:00,
2013-01-23 16:23:00,61.9,13.8,30.07,NNE,24,0.0,0.0,15,0.00,,CLR,0.00,VWS V14.01,2013-01-24 00:23:00,
2013-01-23 16:28:00,61.7,15.1,30.07,NNE,24,0.0,0.0,16,0.00,,CLR,0.00,VWS V14.01,2013-01-24 00:28:00,
2013-01-23 16:33:00,61.5,13.4,30.07,NNE,24,0.0,0.0,15,0.00,,CLR,0.00,VWS V14.01,2013-01-24 00:33:00,
2013-01-23 16:38:00,61.2,14.7,30.07,NNE,24,0.0,0.0,16,0.00,,CLR,0.00,VWS V14.01,2013-01-24 00:38:00,
2013-01-23 16:43:00,61.0,15.9,30.08,NNE,24,0.0,0.0,17,0.00,,CLR,0.00,VWS V14.01,2013-01-24 00:43:00,
2013-01-23 16:48:00,60.7,14.3,30.07,NNE,24,0.0,0.0,16,0.00,,CLR,0.00,VWS V14.01,2013-01-24 00:48:00,
2013-01-23 16:53:00,60.5,14.1,30.07,NNE,24,0.0,0.0,16,0.00,,CLR,0.00,VWS V14.01,2013-01-24 00:53:00,
2013-01-23 16:58:00,60.2,16.6,30.07,NNE,24,0.0,0.0,18,0.00,,CLR,0.00,VWS V14.01,2013-01-24 00:58:00,
2013-01-23 17:03:00,59.9,16.3,30.08,NNE,24,0.0,0.0,18,0.00,,CLR,0.00,VWS V14.01,2013-01-24 01:03:00,
2013-01-23 17:08:00,59.6,16.1,30.08,NNE,24,0.0,0.0,18,0.00,,CLR,0.00,VWS V14.01,2013-01-24 01:08:00,
2013-01-23 17:13:00,59.4,15.9,30.08,NNE,24,0.0,0.0,18,0.00,,CLR,0.00,VWS V14.01,2013-01-24 01:13:00,
2013-01-23 17:18:00,59.1,16.9,30.08,NNE,24,0.0,0.0,19,0.00,,CLR,0.00,VWS V14.01,2013-01-24 01:18:00,
2013-01-23 17:23:00,58.9,17.9,30.08,NNE,24,0.0,0.0,20,0.00,,CLR,0.00,VWS V14.01,2013-01-24 01:23:00,
2013-01-23 17:28:00,58.6,18.8,30.08,NNE,24,0.0,0.0,21,0.00,,CLR,0.00,VWS V14.01,2013-01-24 01:28:00,
2013-01-23 17:34:00,58.3,19.6,30.08,NNE,24,0.0,0.0,22,0.00,,CLR,0.00,VWS V14.01,2013-01-24 01:34:00,
2013-01-23 17:39:00,58.0,19.4,30.08,NNE,24,0.0,0.0,22,0.00,,CLR,0.00,VWS V14.01,2013-01-24 01:39:00,
2013-01-23 17:44:00,57.8,19.2,30.08,NNE,24,0.0,2.0,22,0.00,,CLR,0.00,VWS V14.01,2013-01-24 01:44:00,
2013-01-23 17:49:00,57.7,18.1,30.09,NNE,24,0.0,2.0,21,0.00,,CLR,0.00,VWS V14.01,2013-01-24 01:49:00,
2013-01-23 17:54:00,57.5,19.0,30.09,NNE,24,0.0,0.0,22,0.00,,CLR,0.00,VWS V14.01,2013-01-24 01:54:00,
2013-01-23 17:59:00,57.4,17.8,30.09,NNE,24,0.0,0.0,21,0.00,,CLR,0.00,VWS V14.01,2013-01-24 01:59:00,
2013-01-23 18:04:00,57.2,17.6,30.09,NNE,24,0.0,0.0,21,0.00,,FEW120,0.00,VWS V14.01,2013-01-24 02:04:00,
2013-01-23 18:09:00,57.0,17.5,30.09,NNE,24,0.0,0.0,21,0.00,,FEW120,0.00,VWS V14.01,2013-01-24 02:09:00,
2013-01-23 18:14:00,56.8,18.4,30.09,NNE,24,0.0,0.0,22,0.00,,FEW120,0.00,VWS V14.01,2013-01-24 02:14:00,
2013-01-23 18:19:00,56.7,18.3,30.09,NNE,24,0.0,0.0,22,0.00,,FEW120,0.00,VWS V14.01,2013-01-24 02:19:00,
2013-01-23 18:24:00,56.4,18.0,30.09,NNE,24,0.0,0.0,22,0.00,,FEW120,0.00,VWS V14.01,2013-01-24 02:24:00,
2013-01-23 18:29:00,56.2,18.9,30.09,NNE,24,0.0,0.0,23,0.00,,FEW120,0.00,VWS V14.01,2013-01-24 02:29:00,
2013-01-23 18:34:00,56.0,19.7,30.09,NNE,24,0.0,0.0,24,0.00,,FEW120,0.00,VWS V14.01,2013-01-24 02:34:00,
2013-01-23 18:39:00,55.9,19.6,30.09,NNE,24,0.0,0.0,24,0.00,,FEW120,0.00,VWS V14.01,2013-01-24 02:39:00,
2013-01-23 18:44:00,55.8,20.5,30.09,NNE,24,0.0,2.0,25,0.00,,FEW120,0.00,VWS V14.01,2013-01-24 02:44:00,
2013-01-23 18:50:00,55.6,19.4,30.09,NNE,24,0.0,0.0,24,0.00,,FEW120,0.00,VWS V14.01,2013-01-24 02:50:00,
2013-01-23 18:55:00,55.6,19.4,30.09,NNE,24,1.0,1.0,24,0.00,,FEW120,0.00,VWS V14.01,2013-01-24 02:55:00,
2013-01-23 19:00:00,55.8,18.6,30.09,NNE,24,0.0,2.0,23,0.00,,FEW120,0.00,VWS V14.01,2013-01-24 03:00:00,
2013-01-23 19:05:00,56.0,19.7,30.09,NNE,24,0.0,0.0,24,0.00,,CLR,0.00,VWS V14.01,2013-01-24 03:05:00,
2013-01-23 19:10:00,56.0,18.8,30.09,NNE,24,1.0,1.0,23,0.00,,CLR,0.00,VWS V14.01,2013-01-24 03:10:00,
2013-01-23 19:15:00,56.1,18.8,30.09,NNE,24,0.0,0.0,23,0.00,,CLR,0.00,VWS V14.01,2013-01-24 03:15:00,
2013-01-23 19:20:00,56.3,18.0,30.09,NNE,24,0.0,0.0,22,0.00,,CLR,0.00,VWS V14.01,2013-01-24 03:20:00,
2013-01-23 19:25:00,56.3,19.0,30.08,NNE,24,0.0,0.0,23,0.00,,CLR,0.00,VWS V14.01,2013-01-24 03:25:00,
2013-01-23 19:30:00,56.2,18.9,30.09,NNE,24,0.0,0.0,23,0.00,,CLR,0.00,VWS V14.01,2013-01-24 03:30:00,
2013-01-23 19:35:00,56.0,18.8,30.09,NNE,24,0.0,0.0,23,0.00,,CLR,0.00,VWS V14.01,2013-01-24 03:35:00,
2013-01-23 19:40:00,55.8,19.6,30.09,NNE,24,0.0,0.0,24,0.00,,CLR,0.00,VWS V14.01,2013-01-24 03:40:00,
2013-01-23 19:45:00,55.7,19.5,30.09,NNE,24,0.0,0.0,24,0.00,,CLR,0.00,VWS V14.01,2013-01-24 03:45:00,
2013-01-23 19:50:00,55.4,20.2,30.10,NNE,24,1.0,3.0,25,0.00,,CLR,0.00,VWS V14.01,2013-01-24 03:50:00,
2013-01-23 19:55:00,55.2,20.0,30.09,NNE,24,0.0,0.0,25,0.00,,CLR,0.00,VWS V14.01,2013-01-24 03:55:00,
2013-01-23 20:00:00,54.9,19.8,30.09,NNE,24,0.0,0.0,25,0.00,,BKN090,0.00,VWS V14.01,2013-01-24 04:00:00,
2013-01-23 20:06:00,54.7,19.6,30.09,NNE,24,0.0,0.0,25,0.00,,BKN090,0.00,VWS V14.01,2013-01-24 04:06:00,
2013-01-23 20:11:00,54.6,19.5,30.09,NNE,24,0.0,0.0,25,0.00,,BKN090,0.00,VWS V14.01,2013-01-24 04:11:00,
2013-01-23 20:16:00,54.5,19.4,30.09,NNE,24,0.0,0.0,25,0.00,,BKN090,0.00,VWS V14.01,2013-01-24 04:16:00,
2013-01-23 20:21:00,54.5,19.4,30.09,NNE,24,0.0,0.0,25,0.00,,BKN090,0.00,VWS V14.01,2013-01-24 04:21:00,
2013-01-23 20:26:00,54.5,20.3,30.10,NNE,24,0.0,0.0,26,0.00,,BKN090,0.00,VWS V14.01,2013-01-24 04:26:00,
2013-01-23 20:31:00,54.4,20.2,30.10,NNE,24,0.0,0.0,26,0.00,,BKN090,0.00,VWS V14.01,2013-01-24 04:31:00,
2013-01-23 20:36:00,54.3,20.2,30.10,NNE,24,0.0,0.0,26,0.00,,BKN090,0.00,VWS V14.01,2013-01-24 04:36:00,
2013-01-23 20:41:00,54.2,21.0,30.10,NNE,24,0.0,0.0,27,0.00,,BKN090,0.00,VWS V14.01,2013-01-24 04:41:00,
2013-01-23 20:46:00,54.0,20.8,30.10,NNE,24,0.0,0.0,27,0.00,,BKN090,0.00,VWS V14.01,2013-01-24 04:46:00,
2013-01-23 20:51:00,53.9,20.7,30.11,NNE,24,0.0,0.0,27,0.00,,BKN090,0.00,VWS V14.01,2013-01-24 04:51:00,
2013-01-23 20:56:00,53.8,20.6,30.10,NNE,24,0.0,0.0,27,0.00,,BKN090,0.00,VWS V14.01,2013-01-24 04:56:00,
2013-01-23 21:00:00,53.7,20.5,30.10,NNE,24,0.0,0.0,27,0.00,,BKN090,0.00,VWS V14.01,2013-01-24 05:00:00,
2013-01-23 21:03:00,53.6,20.5,30.10,NNE,24,0.0,0.0,27,0.00,,OVC100,0.00,VWS V14.01,2013-01-24 05:03:00,
2013-01-23 21:05:00,53.6,20.5,30.10,NNE,24,0.0,0.0,27,0.00,,OVC100,0.00,VWS V14.01,2013-01-24 05:05:00,
2013-01-23 21:08:00,53.5,21.2,30.10,NNE,24,2.0,2.0,28,0.00,,OVC100,0.00,VWS V14.01,2013-01-24 05:08:00,
2013-01-23 21:13:00,53.5,21.2,30.10,NNE,24,0.0,0.0,28,0.00,,OVC100,0.00,VWS V14.01,2013-01-24 05:13:00,
2013-01-23 21:18:00,53.5,22.0,30.10,NNE,24,0.0,0.0,29,0.00,,OVC100,0.00,VWS V14.01,2013-01-24 05:18:00,
2013-01-23 21:23:00,53.5,22.0,30.10,NNE,24,0.0,0.0,29,0.00,,OVC100,0.00,VWS V14.01,2013-01-24 05:23:00,
2013-01-23 21:28:00,53.4,21.1,30.11,NNE,24,0.0,0.0,28,0.00,,OVC100,0.00,VWS V14.01,2013-01-24 05:28:00,
2013-01-23 21:33:00,53.4,20.3,30.11,NNE,24,0.0,1.0,27,0.00,,OVC100,0.00,VWS V14.01,2013-01-24 05:33:00,
2013-01-23 21:38:00,53.5,20.4,30.10,NNE,24,0.0,0.0,27,0.00,,OVC100,0.00,VWS V14.01,2013-01-24 05:38:00,
2013-01-23 21:43:00,53.6,20.5,30.10,NNE,24,1.0,2.0,27,0.00,,OVC100,0.00,VWS V14.01,2013-01-24 05:43:00,
2013-01-23 21:48:00,53.7,19.6,30.10,NNE,24,0.0,2.0,26,0.00,,OVC100,0.00,VWS V14.01,2013-01-24 05:48:00,
2013-01-23 21:53:00,53.7,19.6,30.10,NNE,24,1.0,3.0,26,0.00,,OVC100,0.00,VWS V14.01,2013-01-24 05:53:00,
2013-01-23 21:59:00,53.9,18.9,30.10,NNE,24,2.0,2.0,25,0.00,,OVC100,0.00,VWS V14.01,2013-01-24 05:59:00,
2013-01-23 22:04:00,54.0,19.9,30.10,NNE,24,0.0,3.0,26,0.00,,OVC085,0.00,VWS V14.01,2013-01-24 06:04:00,
2013-01-23 22:09:00,54.0,19.9,30.11,NNE,24,0.0,1.0,26,0.00,,OVC085,0.00,VWS V14.01,2013-01-24 06:09:00,
2013-01-23 22:14:00,54.0,19.9,30.11,NNE,24,0.0,2.0,26,0.00,,OVC085,0.00,VWS V14.01,2013-01-24 06:14:00,
2013-01-23 22:19:00,54.0,19.9,30.11,NNE,24,0.0,2.0,26,0.00,,OVC085,0.00,VWS V14.01,2013-01-24 06:19:00,
2013-01-23 22:24:00,54.1,20.0,30.11,NNE,24,1.0,3.0,26,0.00,,OVC085,0.00,VWS V14.01,2013-01-24 06:24:00,
2013-01-23 22:29:00,54.1,21.7,30.10,NNE,24,0.0,0.0,28,0.00,,OVC085,0.00,VWS V14.01,2013-01-24 06:29:00,
2013-01-23 22:34:00,54.1,22.6,30.11,NNE,24,0.0,2.0,29,0.00,,OVC085,0.00,VWS V14.01,2013-01-24 06:34:00,
2013-01-23 22:39:00,54.0,24.1,30.11,NNE,24,0.0,0.0,31,0.00,,OVC085,0.00,VWS V14.01,2013-01-24 06:39:00,
2013-01-23 22:44:00,53.9,24.0,30.11,NNE,24,0.0,2.0,31,0.00,,OVC085,0.00,VWS V14.01,2013-01-24 06:44:00,
2013-01-23 22:49:00,53.8,24.6,30.11,NNE,24,0.0,0.0,32,0.00,,OVC085,0.00,VWS V14.01,2013-01-24 06:49:00,
2013-01-23 22:55:00,53.6,24.5,30.11,NNE,24,1.0,2.0,32,0.00,,OVC085,0.00,VWS V14.01,2013-01-24 06:55:00,
2013-01-23 23:00:00,53.6,23.7,30.11,NNE,23,2.0,4.0,31,0.00,,OVC085,0.00,VWS V14.01,2013-01-24 07:00:00,
2013-01-23 23:05:00,53.7,23.8,30.11,NNE,22,0.0,3.0,31,0.00,,OVC070,0.00,VWS V14.01,2013-01-24 07:05:00,
2013-01-23 23:10:00,53.8,23.9,30.11,NNE,23,0.0,1.0,31,0.00,,OVC070,0.00,VWS V14.01,2013-01-24 07:10:00,
2013-01-23 23:15:00,53.8,28.2,30.11,NNE,22,0.0,3.0,37,0.00,,OVC070,0.00,VWS V14.01,2013-01-24 07:15:00,
2013-01-23 23:20:00,53.8,31.3,30.11,NNE,22,0.0,0.0,42,0.00,,OVC070,0.00,VWS V14.01,2013-01-24 07:20:00,
2013-01-23 23:25:00,53.9,31.4,30.11,NNE,22,0.0,0.0,42,0.00,,OVC070,0.00,VWS V14.01,2013-01-24 07:25:00,
2013-01-23 23:30:00,54.1,32.7,30.11,NNE,20,2.0,2.0,44,0.00,,OVC070,0.00,VWS V14.01,2013-01-24 07:30:00,
2013-01-23 23:35:00,54.4,33.5,30.11,NNE,19,2.0,3.0,45,0.00,,OVC070,0.00,VWS V14.01,2013-01-24 07:35:00,
2013-01-23 23:40:00,54.5,33.6,30.11,NNE,17,0.0,3.0,45,0.00,,OVC070,0.00,VWS V14.01,2013-01-24 07:40:00,
2013-01-23 23:45:00,54.6,33.7,30.11,NNE,15,1.0,3.0,45,0.00,,OVC070,0.00,VWS V14.01,2013-01-24 07:45:00,
2013-01-23 23:50:00,54.6,34.2,30.11,NNE,15,0.0,1.0,46,0.00,,OVC070,0.00,VWS V14.01,2013-01-24 07:50:00,
2013-01-23 23:56:00,54.6,33.7,30.11,NNE,15,0.0,0.0,45,0.00,,OVC070,0.00,VWS V14.01,2013-01-24 07:56:00,